CST,Max TemperatureF,Mean TemperatureF,Min TemperatureF,Max Dew PointF,MeanDew PointF,Min DewpointF,Max Humidity, Mean Humidity, Min Humidity, Max Sea Level PressureIn, Mean Sea Level PressureIn, Min Sea Level PressureIn, Max VisibilityMiles, Mean VisibilityMiles, Min VisibilityMiles, Max Wind SpeedMPH, Mean Wind SpeedMPH, Max Gust SpeedMPH,PrecipitationIn, CloudCover, Events, WindDirDegrees
2012-11-1,82,62,41,43,35,27,81,46,13,30.03,29.98,29.92,10,10,10,9,3,,0.00,0,,81
2012-11-2,86,68,50,46,39,28,66,40,17,29.98,29.89,29.80,10,10,10,23,9,32,0.00,0,,170
2012-11-3,64,52,41,37,32,28,70,50,26,30.20,30.13,29.99,10,10,7,16,10,18,0.00,0,,19
2012-11-4,68,50,32,32,29,27,87,51,21,30.22,30.15,30.06,10,10,7,7,3,,0.00,0,,188
2012-11-5,66,54,41,34,30,23,66,44,21,30.17,30.12,30.08,10,10,5,25,7,31,0.00,0,,346
2012-11-6,73,53,33,34,31,28,87,50,20,30.17,30.12,30.07,10,10,7,17,4,22,0.00,0,,12
2012-11-7,73,53,33,32,30,27,81,47,18,30.21,30.11,29.99,10,10,10,16,6,26,0.00,0,,158
2012-11-8,80,64,48,50,40,32,58,44,24,29.99,29.89,29.80,10,10,10,24,15,33,0.00,0,,165
2012-11-9,80,70,59,52,50,46,72,51,30,29.87,29.82,29.74,10,10,10,25,16,32,0.00,0,,173
2012-11-10,78,69,60,54,51,50,72,55,36,29.83,29.75,29.65,10,10,7,31,20,38,0.00,1,,173
2012-11-11,68,48,28,52,32,21,82,64,43,30.31,30.00,29.69,10,10,10,20,11,25,0.10,2,Rain,348
2012-11-12,53,38,23,28,21,12,86,58,19,30.49,30.42,30.31,10,10,10,10,4,,0.00,0,,203
2012-11-13,53,42,30,27,20,9,75,50,16,30.46,30.37,30.26,10,10,10,18,7,25,0.00,0,,164
2012-11-14,60,45,30,27,23,18,80,51,19,30.35,30.27,30.20,10,10,10,13,8,17,0.00,0,,173
2012-11-15,60,48,35,39,30,23,76,53,33,30.35,30.23,30.18,10,10,10,14,10,20,0.00,0,,154
2012-11-16,60,46,32,36,32,30,93,61,31,30.41,30.35,30.30,10,10,7,12,4,,0.00,0,,144
2012-11-17,62,48,35,32,29,25,81,52,26,30.33,30.26,30.20,10,10,10,21,10,28,0.00,0,,162
2012-11-18,66,55,44,43,33,28,58,45,28,30.20,30.13,30.05,10,10,10,26,14,33,0.00,0,,164
2012-11-19,69,56,44,50,45,37,93,65,43,30.15,30.11,30.07,10,10,10,13,8,,0.00,0,,155
2012-11-20,73,55,37,50,42,36,93,64,27,30.25,30.20,30.15,10,8,1,8,3,,0.00,0,,124
2012-11-21,73,54,35,48,41,32,93,61,23,30.23,30.14,30.00,10,8,0,26,6,32,0.00,1,Fog,176
2012-11-22,78,66,53,46,39,21,72,44,17,30.27,30.00,29.88,10,10,10,31,17,43,0.00,0,,191
2012-11-23,53,42,32,32,20,14,55,40,22,30.56,30.46,30.29,10,10,10,25,14,31,0.00,0,,11
2012-11-24,60,43,26,21,18,10,69,40,15,30.43,30.19,29.96,10,10,10,25,9,32,0.00,0,,178
2012-11-25,60,46,32,32,27,19,75,47,31,29.95,29.86,29.82,10,10,10,12,6,,0.00,0,,125
2012-11-26,51,42,32,30,25,14,81,57,29,30.41,30.11,29.84,10,10,10,28,14,38,0.00,0,,10
2012-11-27,50,36,21,27,22,19,93,65,32,30.45,30.36,30.26,10,9,5,16,7,23,0.00,0,,195
2012-11-28,64,45,26,36,28,21,80,57,28,30.31,30.23,30.12,10,10,10,20,8,25,0.00,0,,157
2012-11-29,68,55,42,41,38,34,76,57,30,30.12,30.04,29.96,10,10,10,22,15,28,0.00,0,,167
2012-11-30,66,49,32,50,40,32,100,70,40,30.04,29.98,29.91,10,8,0,15,7,18,0.00,1,Fog,154